Page, AZ

3:34 AM MST on February 12, 2016 (GMT -0700)
Page Municipal

Weather History for KPGA - September, 2011

Change the Weather History Date:

Thursday, September 29, 2011

  Actual Average Record
Temperature  
Mean Temperature 77 °F -  
Max Temperature 91 °F 80 °F 91 °F (1963)
Min Temperature 63 °F 54 °F 44 °F (1985)
Cooling Degree Days 12    
Growing Degree Days 27 (Base 50)    
Moisture  
Dew Point 31 °F    
Average Humidity 19    
Maximum Humidity 35    
Minimum Humidity 10    
Precipitation  
Precipitation 0.00 in - - ()
Sea Level Pressure  
Sea Level Pressure 29.96 in    
Wind  
Wind Speed 3 mph (SSE)    
Max Wind Speed 10 mph    
Max Gust Speed -    
Visibility 10 miles    
Events      
Averages and records for this station are not official NWS values.
T = Trace of Precipitation, MM = Missing Value Source: NWS Daily Summary

Daily Weather History Graph

Daily Weather History Graph

Search for Another Location

Airport or City:

Trip Planner

Search our weather history database for the weather conditions in past years. The results will help you decide how hot, cold, wet, or windy it might be!

Date:

Astronomy

Sep. 29, 2011 Rise Set
Actual Time 6:19 AM MST 6:12 PM MST
Civil Twilight 5:53 AM MST 6:38 PM MST
Nautical Twilight 5:23 AM MST 7:08 PM MST
Astronomical Twilight 4:52 AM MST 7:38 PM MST
Moon 9:02 AM MST (9/29) 7:34 PM MST (9/29)
Length of Visible Light 12h 44m
Length of Day
11h 53m
Waxing Crescent, 8% of the Moon is Illuminated
Sep 29
Waxing Crescent
Oct 3
First Quarter
Oct 11
Full
Oct 19
Last Quarter
Oct 26
New

Hourly Weather History & Observations

Time (MST) Temp. Dew Point Humidity Pressure Visibility Wind Dir Wind Speed Gust Speed Precip Events Conditions
12:53 AM 72.0 °F 28.0 °F 20% 29.91 in 10.0 mi SW 4.6 mph - N/A   Clear
1:53 AM 70.0 °F 28.9 °F 22% 29.91 in 10.0 mi SW 3.5 mph - N/A   Clear
2:53 AM 69.1 °F 28.9 °F 22% 29.90 in 10.0 mi Calm Calm - N/A   Clear
3:53 AM 68.0 °F 30.0 °F 24% 29.91 in 10.0 mi WNW 3.5 mph - N/A   Clear
4:53 AM 66.0 °F 32.0 °F 28% 29.92 in 10.0 mi Calm Calm - N/A   Clear
5:53 AM 63.0 °F 33.1 °F 33% 29.95 in 10.0 mi Calm Calm - N/A   Clear
6:53 AM 64.0 °F 36.0 °F 35% 29.98 in 10.0 mi Calm Calm - N/A   Clear
7:53 AM 70.0 °F 33.1 °F 26% 29.99 in 10.0 mi Calm Calm - N/A   Clear
8:53 AM 73.0 °F 32.0 °F 22% 29.99 in 10.0 mi Variable 3.5 mph - N/A   Clear
9:53 AM 77.0 °F 32.0 °F 19% 30.00 in 10.0 mi NW 3.5 mph - N/A   Clear
10:53 AM 81.0 °F 30.0 °F 16% 29.98 in 10.0 mi Calm Calm - N/A   Clear
11:53 AM 82.9 °F 32.0 °F 16% 29.96 in 10.0 mi Calm Calm - N/A   Clear
12:50 PM 87.8 °F 32.0 °F 14% 30.13 in 3.0 mi SE 3.5 mph - N/A   Haze
12:53 PM 87.1 °F 32.0 °F 14% 29.93 in 6.0 mi Variable 3.5 mph - N/A   Haze
1:53 PM 91.0 °F 30.0 °F 11% 29.90 in 10.0 mi NE 5.8 mph - N/A   Clear
2:53 PM 91.9 °F 28.9 °F 11% 29.88 in 10.0 mi Calm Calm - N/A   Clear
3:53 PM 91.9 °F 28.9 °F 11% 29.87 in 10.0 mi NNE 4.6 mph - N/A   Clear
4:53 PM 91.4 °F 28.4 °F 10% 30.06 in 10.0 mi Calm Calm - N/A   Clear
5:53 PM 84.9 °F 34.0 °F 16% 29.88 in 10.0 mi Calm Calm - N/A   Clear
6:53 PM 79.0 °F 34.0 °F 20% 29.90 in 10.0 mi Calm Calm - N/A   Clear
7:53 PM 80.6 °F 30.2 °F 16% 30.09 in 10.0 mi SE 4.6 mph - N/A   Clear
8:53 PM 78.8 °F 28.4 °F 16% 30.10 in 10.0 mi SSE 5.8 mph - N/A   Clear
9:53 PM 79.0 °F 27.0 °F 15% 29.91 in 10.0 mi SSE 3.5 mph - N/A   Unknown
10:53 PM 72.0 °F 28.0 °F 20% 29.93 in 10.0 mi SSE 10.4 mph - N/A   Clear
11:53 PM 77.0 °F 26.1 °F 15% 29.92 in 10.0 mi Calm Calm - N/A   Clear